SBFZSBBE

Guest
Details From SBFZ - Pinto Martins
To SBBE - Val De Caes Intl
Flight Number -
Tags decoded
Created
Modified
Stats Distance 614 nm / 1,137 km
Max Altitude 0 ft / 0 m
Waypoints 3
Social Downloads 2
Likes 0
Share VATSIM

Download

Looking for another format? Having issues loading an existing format? Contact us
Advertisement - Login to hide

Notes

Requested: SBFZ UW33 JANES BE393 SBBE Unmatched points: UW33 BE393

Route

SBFZ JANES SBBE

ID Type Via Altitude Latitude Longitude Leg Dist Tot Dist Heading (true) Name
O SBFZ APT - 0 ft / 0 m -3.77628˚ -38.53256˚ - 0 nm - Pinto Martins
JANES FIX - 0 ft / 0 m -1.56750˚ -47.83817˚ 573 nm 573 nm 283° / 284° -
O SBBE APT - 0 ft / 0 m -1.38078˚ -48.47619˚ 39 nm 613 nm 286° / 286° Val De Caes Intl

Altitude Profile

Advertisement - Login to hide

Weather


0- 5 10 15 20 25 30 35+ Temperature / ° C

Clouds and Precipitation
Forecast for 2017-07-25 18:00 UTC. Updated an hour ago

Ground ~20,000 ft ~40,000 ft Winds

SBFZ

Details ICAO SBFZ (FOR)
Name Pinto Martins
Region Brazil
Timezone America/Fortaleza (UTC-3.0)
Stats Elevation 82 ft / 25 m (AMSL)
Location -3.776283° -38.532556°
Runways 1
Magnetic Variation 21.140° W

METAR

SBFZ 251600Z 12016KT 9999 SCT025 31/19 Q1015

Decode

TAF

TAF SBFZ 251000Z 2512/2612 11013KT 9999 SCT020 TX31/2517Z TN24/2608Z BECMG 2600/2602 12008KT RMK PEA

Decode

Departure Runways

ID Width Length Bearing (true) Bearing (mag) Surface Threshold Offset Overrun Length
13 148 ft / 45 m 8,360 ft / 2,548 m 104.88° 126.02° Asphalt 0 ft / 0 m 195 ft / 59 m
31 148 ft / 45 m 8,360 ft / 2,548 m 284.88° 306.02° Asphalt 0 ft / 0 m 125 ft / 38 m

SBBE

Details ICAO SBBE (BEL)
Name Val De Caes Intl
Region Brazil
Timezone America/Belem (UTC-3.0)
Stats Elevation 54 ft / 16 m (AMSL)
Location -1.380776° -48.476189°
Runways 2
Magnetic Variation 20.135° W

METAR

SBBE 251600Z 15012KT 9999 SCT040 32/21 Q1015

Decode

TAF

TAF TAF SBBE 251000Z 2512/2612 09008KT CAVOK TX32/2517Z TN26/2606Z BECMG 2512/2514 12010KT 9999 BKN030 BECMG 2516/2518 13008KT SCT035 BECMG 2522/2524 09005KT CAVOK BECMG 2605/2607 06005KT RMK PCQ

Decode

Destination Runways

ID Width Length Bearing (true) Bearing (mag) Surface Threshold Offset Overrun Length
02 148 ft / 45 m 6,023 ft / 1,836 m 4.48° 24.62° Asphalt 0 ft / 0 m 194 ft / 59 m
06 148 ft / 45 m 9,215 ft / 2,809 m 45.30° 65.44° Asphalt 0 ft / 0 m 0 ft / 0 m
20 148 ft / 45 m 6,023 ft / 1,836 m 184.48° 204.62° Asphalt 0 ft / 0 m 194 ft / 59 m
24 148 ft / 45 m 9,215 ft / 2,809 m 225.30° 245.44° Asphalt 0 ft / 0 m 197 ft / 60 m

Approach Navaids

Runway Type Ident Frequency Range Bearing (true) Bearing (mag) Slope Elevation
06 Localiser IBE 109.30 MHz 18 nm / 33 km 45.72° 65.86° - 48 ft / 15 m (AMSL)
06 Glidescope IBE 109.30 MHz 10 nm / 19 km 45.30° 65.44° 3.00° 48 ft / 15 m (AMSL)
06 DME IBE 109.30 MHz 18 nm / 33 km - - - 48 ft / 15 m (AMSL)

Popular Alternatives